www.pogodaiklimat.ru

Погода и климат >> Архив погоды >> Россия >> Ямало-Ненецкий АО >> Новый Уренгой


АРХИВ ПОГОДЫ в Новом Уренгое

Время (UTC), дата Ветер
(напр.,м/с)
 
Видим.   Явления Облачность Т
(С)
Тd
(С)
f
(%)
Тe
(С)
Тes
(С)
Комфортность P
(гПа)
Po
(гПа)
Тmin
(С)
Tmax
(С)
R
(мм)
R24
(мм)
S
(см)
00 13.05 СЗ 5
{10}
50 км 3/0
[Ci fib]
-6.4 -9.9 76 -14 -13 прохладно 1028.5 1020.4
03 13.05 С 7-12
{14}
50 км 8/4 300 м
[Cu hum Ac trans Ci fib]
-4.5 -8.0 77 -13 -12 прохладно 1028.3 1020.3 -7.2 84
06 13.05 СЗ 5
{12}
20 км 10/10 300 м
[Sc]
-3.2 -7.3 73 -10 -10 прохладно 1027.2 1019.2
09 13.05 СЗ 6 10 км слаб. крупа 10/5 300 м
[Cb calv Ac und]
-4.0 -6.3 84 -12 -11 холодно 1025.9 1017.9
12 13.05 С 6 4000 м слаб. ливневой снег 10/6 600 м
[Cb calv Ac und]
-3.8 -6.3 83 -11 -11 холодно 1025.7 1017.7
15 13.05 С 6
{11}
10 км позёмок {ливн. осадки} 10/5 600 м
[Cb calv Ci fib]
-5.2 -7.9 81 -13 -13 холодно 1025.6 1017.5 -2.8 0.2
18 13.05 С 7-12
{14}
10 км слаб. ливневой снег {метель} 10/9 300 м
[Cb calv Ac und]
-6.1 -8.9 81 -15 -15 холодно 1026.0 1017.9
21 13.05 С 7-12
{13}
10 км слаб. ливневой снег {метель} 10/9 300 м
[Cb calv Ac und]
-7.0 -9.5 82 -16 -16 холодно 1026.2 1018.1
00 14.05 С 7-11
{13}
10 км слаб. ливневой снег {метель} 10/9 300 м
[Cb calv Ac und]
-8.5 -11.2 81 -17 -17 холодно 1027.0 1018.9
03 14.05 С 7-12
{13}
10 км слаб. ливневой снег {метель} 9/8 300 м
[Cb calv Ac trans]
-8.5 -11.8 77 -17 -17 очень
холодно
1027.7 1019.6 -9.2 0.3 84
06 14.05 С 7-12
{13}
4000 м слаб. ливневой снег {метель} 9/6 300 м
[Cb calv Ac trans]
-7.1 -10.8 75 -16 -15 очень
холодно
1028.3 1020.2
09 14.05 С 7-11
{13}
10 км слаб. ливневой снег {метель} 10/5 300 м
[Cb calv Ac und]
-6.3 -9.8 76 -15 -14 очень
холодно
1028.7 1020.6
12 14.05 С 6
{12}
10 км слаб. ливневой снег {метель} 10/4 300 м
[Cb calv Ac und]
-6.3 -9.7 77 -14 -14 очень
холодно
1029.5 1021.4
15 14.05 С 4
{10}
10 км слаб. ливневой снег {метель} 10/4 300 м
[Cb calv Ac trans Ci fib]
-6.8 -9.4 82 -13 -13 холодно 1029.7 1021.6 -6.1 0.3
18 14.05 С 4
{10}
10 км позёмок {ливн. осадки} 10/6 200 м
[St Ac und]
-7.6 -9.4 87 -14 -14 холодно 1029.8 1021.7
21 14.05 С 5
{11}
10 км слаб. снег {метель} 10/6 200 м
[Frnb As op]
-9.0 -11.1 85 -17 -17 очень
холодно
1029.9 1021.8
00 15.05 СЗ 5 10 км позёмок {снег} 10/6 200 м
[St As op]
-9.1 -11.1 85 -17 -17 холодно 1029.8 1021.7
03 15.05 СЗ 5 50 км позёмок 10/0
[Ci fib]
-7.2 -10.6 77 -15 -12 холодно 1030.2 1022.1 -9.6 0.0 84
06 15.05 СЗ 5 50 км {метель} 10/0
[Ci fib]
-4.5 -9.3 69 -11 -7 холодно 1029.7 1021.7
09 15.05 СЗ 7-10
{10}
50 км 10/0
[Ci fib]
-3.6 -9.0 66 -11 -9 холодно 1029.6 1021.6
12 15.05 СЗ 6
{10}
50 км 4/0
[Ci fib]
-3.7 -8.2 71 -11 -10 холодно 1029.0 1021.0
15 15.05 СЗ 4 50 км 10/0
[Ci fib]
-4.6 -8.1 76 -11 -11 холодно 1028.6 1020.6 -3.2
18 15.05 С 2 10 км 10/0
[Ci fib]
-7.7 -9.5 87 -12 -12 прохладно 1028.4 1020.3
21 15.05 СЗ 3 10 км 10/0
[Ci fib]
-9.6 -10.3 95
00 16.05 С 2 50 км 10/0
[Ci fib]
-8.0 -9.3 90 -13 -12 прохладно 1027.1 1019.0
03 16.05 СЗ 1 50 км 6/0
[Ci fib]
-2.8 -9.8 59 -5 +2 по сезону 1026.7 1018.7 -10.0 84
06 16.05 ЮЗ 2 н/о н/о +2.4 -8.8 43
09 16.05 ЮЗ 2 50 км 3/0
[Ci fib]
+1.3 -7.6 51
12 16.05 ЮВ 3 50 км 4/0
[Ci fib]
+1.0 -7.4 53 -3 -0 по сезону 1023.1 1015.3
15 16.05 В 4 50 км 6/0
[Ci fib]
-0.3 -7.0 61 -5 -5 по сезону 1022.0 1014.1 +3.4
18 16.05 В 4 20 км 10/0
[Ci fib]
-4.0 -9.1 68 -10 -10 прохладно 1020.6 1012.7
21 16.05 ЮВ 4 20 км 10/0
[Ac trans Ci fib]
-5.1 -9.5 71 -11 -11 прохладно 1019.9 1011.8
00 17.05 ЮВ 4 50 км 10/0
[Cs]
-3.2 -8.6 66 -9 -8 по сезону 1018.3 1010.4
03 17.05 ЮВ 5 50 км 8/0
[Ci fib]
+0.9 -5.6 62 -4 -2 по сезону 1017.1 1009.3 -5.4 80
06 17.05 ЮВ 6 50 км 4/0
[Ci fib]
+3.3 -4.5 57 -2 +2 по сезону 1015.9 1008.1
09 17.05 В 6 50 км 10/0
[Cs]
+3.8 -3.2 60 -1 +2 по сезону 1014.8 1007.0
12 17.05 В 6 50 км 10/0
[Cs]
+3.4 -3.5 61 -2 -1 по сезону 1013.8 1006.0
15 17.05 В 6 50 км 10/0
[Ac trans Cs]
+1.7 -3.7 67 -4 -4 по сезону 1013.3 1005.5 +4.2
18 17.05 В 6 10 км 10/0
[Ac trans Ci fib]
+0.5 -5.1 66 -6 -6 по сезону 1011.7 1004.0
21 17.05 В 7
{10}
20 км 10/0
[Ac trans Ci fib]
-0.3 -5.5 68 -7 -7 по сезону 1009.7 1001.9
00 18.05 В 7-10
{11}
50 км 10/0
[Ci fib]
+1.0 -5.0 64 -5 -5 по сезону 1008.0 1000.3
03 18.05 В 10-13
{14}
50 км 10/0
[Ac trans Ci fib]
+3.9 -4.6 54 -2 -2 по сезону 1006.5 998.8 -0.3 75
06 18.05 В 10-15
{15}
50 км 10/0
[Ci fib]
+5.6 -3.5 52 0 0 по сезону 1005.6 998.0
09 18.05 В 9-12
{15}
50 км 6/0
[Ci fib]
+7.0 -3.7 46 +2 +3 тепло 1005.8 998.2
12 18.05 В 8-11
{14}
50 км 6/0
[Ci fib]
+8.2 -4.1 42 +4 +5 тепло 1005.6 998.0
15 18.05 СВ 6
{12}
50 км 6/0
[Ci fib]
+5.8 -3.3 52 +2 +2 тепло 1005.1 997.5 +8.4
18 18.05 СВ 7-11
{11}
10 км 6/0
[Ac trans Ci fib]
+3.5 -3.4 61 -2 -2 по сезону 1004.2 996.5
21 18.05 СВ 5
{11}
20 км 10/0
[Ac trans Ci fib]
+2.1 -3.0 69 -3 -3 по сезону 1002.4 994.8
00 19.05 СВ 7-10
{11}
10 км слаб. снег {дождь} 10/5 200 м
[Frnb As op]
+1.0 +0.2 94 -6 -6 по сезону 1000.6 993.0
03 19.05 СВ 7-11
{12}
10 км слаб. дождь 10/8 200 м
[Frnb As op]
+1.5 +0.7 94 -5 -5 по сезону 998.6 991.0 +0.9 1 68
06 19.05 СВ 7-12
{12}
10 км слаб. дождь 10/8 200 м
[Frnb As op]
+1.9 +0.9 93 -5 -5 по сезону 997.8 990.2
09 19.05 СВ 5
{12}
4000 м дымка {дождь} 10/6 100 м
[St Ac und]
+2.0 +1.5 96 -4 -3 по сезону 998.1 990.5
12 19.05 СВ 5 10 км {дождь} 10/8 100 м
[St Ac und]
+2.5 +1.9 96 -3 -3 по сезону 998.3 990.7
15 19.05 СВ 4 10 км слаб. дождь 10/8 100 м
[Frnb As op]
+1.2 +0.7 96 -4 -4 по сезону 998.3 990.7 +2.6 2

 

Местоположение метеостанции Новый Уренгой (Ямало-Ненецкий АО, Россия): широта 66.10 долгота 76.78 высота над уровнем моря 62 м.

В архиве по умолчанию представлена погода в Новом Уренгое за последнюю неделю. Архивные данные за месяц целиком и за предыдущие месяцы, начиная с января 2011 года, Вы можете получить, выбрав интересующий диапазон дат из раскрывающегося списка и нажав кнопку "Ввод!".


*Определитесь, кто Вы:
робот инопланетянин человек

Внимание! Время в таблицах - всемирное. Для получения местного времени необходимо прибавить поправку, которая равна 5 ч.

Смотрите также архив погоды в соседних городах и на ближайших метеорологических станциях:

Погода в Уренгое (Ямало-Ненецкий АО, Россия) (75 км)
Погода в Пангодах (Ямало-Ненецкий АО, Россия) (108 км)
Погода в Тарко-Сале (Ямало-Ненецкий АО, Россия) (140 км)
Погода в Тазовском (Ямало-Ненецкий АО, Россия) (175 км)
Погода в Ныде (Ямало-Ненецкий АО, Россия) (181 км)
Погода в Надыме (Ямало-Ненецкий АО, Россия) (200 км)
Погода в Новом Порте (Ямало-Ненецкий АО, Россия) (245 км)
Погода в Красноселькупске (Ямало-Ненецкий АО, Россия) (261 км)
Погода в Лонг-Югане (Ямало-Ненецкий АО, Россия) (307 км)
Погода в Халясавэе (Ямало-Ненецкий АО, Россия) (311 км)

Пояснения к столбцам:

Ветер - указаны скорость ветра в м/с - средняя за 10 мин, порывы в срок и между сроками (в фигурных скобках) и направление, откуда дует ветер: С - северный, СВ - северо-восточный, В - восточный, ЮВ - юго-восточный, Ю - южный, ЮЗ - юго-западный, З - западный, СЗ - северо-западный.
Видимость - горизонтальная дальность видимости в метрах или километрах. При видимости от 1 до 10 км при отсутствии осадков обычно наблюдается дымка, при ухудшении видимости до 1 км и менее - туман. В сухую погоду видимость может ухудшаться дымом, пылью или мглою.
Явления - указаны атмосферные явления, наблюдавшиеся в срок или в последний час перед сроком; фигурными скобками обозначены явления, наблюдавшиеся между сроками (за 1-3 часа до срока); квадратными скобками обозначены град или гололедные отложения с указанием их диаметра в мм.
Облачность - указаны через наклонную черту общая и нижняя облачность в баллах и высота нижней границы облаков в метрах; квадратными скобками обозначены формы облаков: Ci - перистые, Cs - перисто-слоистые, Cc - перисто-кучевые, Ac - высококучевые, As - высокослоистые, Sc - слоисто-кучевые, Ns - слоисто-дождевые, Cu - кучевые, Cb - кучево-дождевые. Подробнее классификацию облаков см. в Атласе облаков (PDF).
T - Температура воздуха - температура, измеренная на высоте 2 м над землей.
Td - Температура точки росы - температура, при понижении до которой содержащийся в воздухе водяной пар достигнет насыщения.
f - Относительная влажность воздуха - влажноcть воздуха, измеренная на высоте 2 м над землей.
Te - Эффективная температура - температура, которую ощущает одетый по сезону человек в тени. Характеристика душности погоды. При расчете учитывается влияние влажности воздуха и скорости ветра на теплоощущения человека.
Tes - Эффективная температура на солнце - температура, которую ощущает человек, с поправкой на солнечный нагрев. Характеристика знойности погоды. Зависит от высоты солнца над горизонтом, облачности и скорости ветра. Ночью, в пасмурную погоду, а также при ветре 12 м/с и более поправка равна нулю.
P - Атмосферное давление - приведенное к уровню моря атмосферное давление.
Po - Атмосферное давление - измеренное на уровне метеостанции атмосферное давление.
Tmin - Минимальная температура - минимум температуры воздуха на высоте 2 м над землей.
Tmax - Максимальная температура - максимум температуры воздуха на высоте 2 м над землей.
R - Количество осадков - Количество выпавших осадков за период времени, мм. При наведении курсора мыши на число - период времени, за который выпало указанное количество осадков.
R24 - Количество осадков - Количество выпавших осадков за 24 часа, мм.
S - Снежный покров - Высота снежного покрова, см. При наведении курсора мыши на число - состояние снежного покрова и степень покрытия местности в баллах.